Location: Ammerl�gen
(47.2167°N, 9.6000°E)
Time: 04:20:35
(UTC+00:00)

BREEZE-M DEB (TANK) - Pass Details

Date: 21 April 2021
Orbit: 351 x 16372 km, 49.4° (Epoch: 14 May)

Event Time Altitude Azimuth Distance (km) Brightness Sun altitude
Rises 19:05:09 0° 281° (WNW) 2,236 7.2 -8.0°
Reaches altitude 10° 19:07:21 10° 256° (WSW) 1,324 5.0 -8.3°
Maximum altitude 19:09:04 17° 210° (SSW) 1,102 3.9 -8.6°
Drops below altitude 10° 19:11:15 10° 166° (SSE) 1,740 4.5 -8.9°
Enters shadow 19:12:32 - 156° (SSE) 2,315 5.0 -9.1°
